This demonstration page uses our WeatherBlox Daily Observations layout. Learn more.

Left ArrowRight Arrow

34.02893, -84.19858

Hourly Observations for October 6, 2019

Temp ( °F °C ) Dew Point ( °F °C ) Humidity (%) Winds ( mph kmh ) Pressure ( in mb ) Visibility ( mi km ) Precip ( " mm )
12:53 am 00:53 Cloudy 62 16.7 58 14.4 86 86 E 8 13 30.17 1022 10 16 0.00 0.00
1:53 am 01:53 Cloudy 61 16.1 57 13.9 87 87 VRB 6 9 30.17 1022 10 16 0.00 0.00
2:18 am 02:18 Cloudy 61 16.1 58 14.4 90 90 VRB 6 9 30.20 1023 10 16 0.00 0.00
2:36 am 02:36 Cloudy 61 16.1 58 14.4 90 90 VRB 5 7 30.20 1023 10 16 0.00 0.00
2:53 am 02:53 Cloudy 61 16.1 58 14.4 90 90 E 9 15 30.18 1022 10 16 0.00 0.00
3:53 am 03:53 Cloudy 61 16.1 57 13.9 87 87 VRB 6 9 30.18 1022 10 16 0.00 0.00
4:53 am 04:53 Cloudy with Mist and Fog 60 15.6 58 14.4 93 93 VRB 7 11 30.19 1022 5 8 0.00 0.00
5:53 am 05:53 Cloudy 60 15.6 58 14.4 93 93 undefined N/A 30.19 1022 10 16 0.00 0.00
6:53 am 06:53 Cloudy 60 15.6 58 14.4 93 93 VRB 5 7 30.19 1022 10 16 0.00 0.00
7:53 am 07:53 Cloudy 60 15.6 58 14.4 93 93 VRB 6 9 30.20 1023 10 16 0.00 0.00
8:53 am 08:53 Cloudy 62 16.7 59 15 90 90 VRB 5 7 30.21 1023 10 16 0.00 0.00
9:53 am 09:53 Cloudy 63 17.2 59 15 87 87 VRB 5 7 30.23 1024 10 16 0.00 0.00
10:53 am 10:53 Cloudy 63 17.2 60 15.6 90 90 ENE 5 7 30.24 1024 7 11 0.00 0.00
11:53 am 11:53 Cloudy 64 17.8 60 15.6 87 87 Calm 30.24 1024 10 16 0.00 0.00
11:58 am 11:58 Cloudy 65 18.3 60 15.6 84 84 VRB 3 6 30.23 1024 10 16 0.00 0.00
12:53 pm 12:53 Cloudy 68 20 61 16.1 78 78 VRB 5 7 30.22 1023 10 16 0.00 0.00
1:15 pm 13:15 Cloudy 68 20 61 16.1 78 78 E 5 7 30.21 1023 10 16 0.00 0.00
1:25 pm 13:25 Cloudy 70 21.1 62 16.7 76 76 ENE 3 6 30.20 1023 10 16 0.00 0.00
1:38 pm 13:38 Mostly Cloudy 73 22.8 62 16.7 69 69 VRB 6 9 30.19 1022 10 16 0.00 0.00
1:53 pm 13:53 Mostly Cloudy 70 21.1 62 16.7 76 76 VRB 5 7 30.20 1023 10 16 0.00 0.00
2:00 pm 14:00 Mostly Cloudy 70 21.1 62 16.7 76 76 VRB 5 7 30.19 1022 10 16 0.00 0.00
2:53 pm 14:53 Cloudy 72 22.2 62 16.7 71 71 VRB 3 6 30.17 1022 10 16 0.00 0.00
3:08 pm 15:08 Cloudy 72 22.2 63 17.2 73 73 VRB 5 7 30.16 1021 10 16 0.00 0.00
3:38 pm 15:38 Cloudy 73 22.8 62 16.7 69 69 NNE 6 9 30.14 1021 10 16 0.00 0.00
3:53 pm 15:53 Cloudy 74 23.3 63 17.2 69 69 VRB 6 9 30.15 1021 10 16 0.00 0.00
4:53 pm 16:53 Mostly Cloudy 75 23.9 63 17.2 66 66 NE 7 11 30.13 1020 10 16 0.00 0.00
5:13 pm 17:13 Mostly Cloudy 75 23.9 63 17.2 66 66 VRB 5 7 30.12 1020 10 16 0.00 0.00
5:53 pm 17:53 Sunny 75 23.9 63 17.2 66 66 VRB 7 11 30.13 1020 10 16 0.00 0.00
6:53 pm 18:53 Sunny 72 22.2 63 17.2 73 73 Calm 30.13 1020 10 16 0.00 0.00
7:53 pm 19:53 Clear 71 21.7 62 16.7 73 73 ENE 3 6 30.13 1020 10 16 0.00 0.00
8:53 pm 20:53 Clear 70 21.1 63 17.2 79 79 VRB 3 6 30.14 1021 10 16 0.00 0.00
9:53 pm 21:53 Clear 70 21.1 63 17.2 79 79 E 6 9 30.14 1021 10 16 0.00 0.00
10:53 pm 22:53 Clear 69 20.6 63 17.2 81 81 VRB 5 7 30.14 1021 10 16 0.00 0.00
11:53 pm 23:53 Mostly Clear 69 20.6 63 17.2 81 81 VRB 3 6 30.13 1020 10 16 0.00 0.00

Powered by AerisWeather